Terminal Aerodrome Forecast
Issued by NWS Wakefield, VA

Home | Current Version | Previous Version | Text Only | Print | Product List | Glossary On
Versions: 1 2 3 4 5 6 7 8 9 10 11 12 13 14 15 16 17 18 19 20
000
FTUS41 KAKQ 191725
TAFECG
TAF
KECG 191725Z 1918/2018 02004KT P6SM SCT035
     FM200100 18004KT P6SM SCT150
     FM200600 24004KT P6SM SKC
     FM200900 VRB03KT 5SM BR SKC
     FM201200 VRB03KT P6SM SCT150=

USA.gov is the U.S. government's official web portal to all federal, state and local government web resources and services.